Home > Weather > Spartanburg > Past weeks

Flag for USA Past Weather in Spartanburg, South Carolina, USA — Yesterday and Last 2 Weeks

Now
70 °F

Rain. More clouds than sun.


Feels Like: 70 °F
Forecast: 64 / 74 °F
Wind: 5 mph from Northeast

Location: Spartanburg Memorial

Current Time: May 29, 2016 at 11:31:18 AM

Latest Report: May 29, 2016 at 10:55 AM


Visibility: 10 mi

Pressure: 30.15 "Hg

Humidity: 73%

Dew Point: 61 °F

Location of SpartanburgLocation

Past Weather in Spartanburg — Graph

°F

Spartanburg Temperature Yesterday

Maximum temperature yesterday: 82 °F (at 2:15 PM)
Minimum temperature yesterday: 59 °F (at 5:15 AM)
Average temperature yesterday: 71 °F

High & Low Weather Summary for the Past Weeks

 TemperatureHumidityPressure
High86 °F (May 26, 2:35 PM)100% (May 20, 3:55 AM)30.27 "Hg (May 20, 3:55 AM)
Low45 °F (May 15, 6:35 AM)20% (May 14, 8:55 PM)29.80 "Hg (May 14, 4:35 PM)
Average66 °F67%30.08 "Hg
* Reported May 14 9:15 AM — May 29 9:55 AM, Spartanburg, Weather by CustomWeather, © 2016

Note: Actual official high and low records may vary slightly from our data, if they occured in-between our weather recording intervals... More about our weather records

Advertising

Spartanburg Weather History for the Previous 24 Hours

Scroll right to see more
 ConditionsComfort  
Time TempWeatherWind HumidityBarometerVisibility
9:55 AM
Sun, May 29
68 °FRain. More clouds than sun.No wind83%30.14 "Hg10 mi
9:35 AM68 °FRain. More clouds than sun.No wind83%30.14 "Hg10 mi
9:15 AM68 °FMore clouds than sun.3 mph83%30.13 "Hg10 mi
8:55 AM68 °FRain. More clouds than sun.No wind83%30.13 "Hg10 mi
8:35 AM68 °FOvercast.8 mph83%30.14 "Hg10 mi
8:15 AM68 °FLight rain. More clouds than sun.3 mph83%30.14 "Hg10 mi
7:55 AM68 °FLight rain. Overcast.No wind88%30.13 "Hg7 mi
7:35 AM66 °FLight rain. Mostly cloudy.No wind94%30.12 "Hg7 mi
7:15 AM66 °FRain. More clouds than sun.No wind94%30.12 "Hg5 mi
6:55 AM66 °FLight rain. Mostly cloudy.No wind94%30.11 "Hg5 mi
6:35 AM68 °FLight rain. Overcast.No wind88%30.11 "Hg7 mi
6:15 AM68 °FLight rain. Mostly cloudy.No wind88%30.11 "Hg7 mi
5:55 AM68 °FLight rain. Mostly cloudy.No wind88%30.10 "Hg10 mi
5:35 AM68 °FDrizzle. Overcast.No wind88%30.09 "Hg10 mi
5:15 AM68 °FDrizzle. Mostly cloudy.3 mph88%30.09 "Hg10 mi
4:55 AM68 °FDrizzle. Mostly cloudy.No wind88%30.09 "Hg10 mi
4:35 AM68 °FLight rain. Overcast.3 mph88%30.10 "Hg10 mi
4:15 AM68 °FPartly cloudy.No wind88%30.10 "Hg10 mi
3:55 AM68 °FRain. Mostly cloudy.No wind88%30.10 "Hg10 mi
3:35 AM68 °FPassing clouds.No wind88%30.10 "Hg10 mi
3:15 AM68 °FPassing clouds.3 mph88%30.10 "Hg10 mi
2:55 AM68 °FLight rain. Mostly cloudy.3 mph88%30.11 "Hg10 mi
2:35 AM68 °FLight rain. Overcast.No wind88%30.11 "Hg7 mi
2:15 AM68 °FLight rain. Overcast.No wind88%30.12 "Hg10 mi
1:55 AM68 °FLight rain. Mostly cloudy.No wind88%30.12 "Hg10 mi
1:35 AM70 °FLight rain. Mostly cloudy.No wind83%30.12 "Hg10 mi
1:15 AM70 °FPassing clouds.No wind83%30.13 "Hg10 mi
12:55 AM68 °FClear.No wind88%30.13 "Hg10 mi
12:35 AM70 °FPassing clouds.No wind83%30.13 "Hg10 mi
11:55 PM
Sat, May 28
70 °FClear.No wind83%30.13 "Hg10 mi
11:35 PM68 °FClear.No wind88%30.12 "Hg10 mi
11:15 PM70 °FClear.No wind83%30.12 "Hg10 mi
10:55 PM70 °FClear.No wind83%30.13 "Hg10 mi
10:35 PM70 °FClear.No wind83%30.13 "Hg10 mi
10:15 PM70 °FClear.No wind83%30.13 "Hg10 mi
9:55 PM70 °FClear.No wind83%30.13 "Hg10 mi
9:35 PM72 °FClear.No wind78%30.12 "Hg10 mi
9:15 PM72 °FSunny.No wind78%30.12 "Hg10 mi
8:55 PM72 °FSunny.No wind78%30.13 "Hg10 mi
8:35 PM73 °FSunny.No wind74%30.13 "Hg10 mi
8:15 PM73 °FSunny.No wind74%30.13 "Hg10 mi
7:55 PM77 °FSunny.No wind61%30.13 "Hg10 mi
7:15 PM77 °FSunny.No wind61%30.13 "Hg10 mi
6:55 PM77 °FSunny.No wind61%30.12 "Hg7 mi
6:35 PM79 °FSunny.3 mph54%30.12 "Hg10 mi
6:15 PM79 °FSunny.3 mph54%30.12 "Hg7 mi
5:55 PM79 °FSunny.No wind54%30.12 "Hg10 mi
5:35 PM79 °FSunny.3 mph54%30.12 "Hg10 mi
5:15 PM81 °FScattered clouds.6 mph51%30.12 "Hg10 mi
4:55 PM81 °FScattered clouds.5 mph48%30.12 "Hg10 mi
4:35 PM81 °FSunny.6 mph48%30.13 "Hg10 mi
4:15 PM81 °FSunny.3 mph48%30.13 "Hg10 mi
3:55 PM82 °FSunny.6 mph45%30.13 "Hg10 mi
3:35 PM81 °FScattered clouds.7 mph48%30.13 "Hg10 mi
3:15 PM81 °FPartly sunny.No wind42%30.14 "Hg7 mi
2:55 PM82 °FBroken clouds.No wind42%30.15 "Hg10 mi
2:35 PM81 °FBroken clouds.5 mph48%30.16 "Hg10 mi
2:15 PM82 °FBroken clouds.No wind45%30.16 "Hg10 mi
1:55 PM79 °FBroken clouds.No wind48%30.17 "Hg7 mi
1:35 PM79 °FPartly sunny.No wind48%30.18 "Hg10 mi
1:15 PM79 °FMore clouds than sun.3 mph51%30.18 "Hg10 mi
12:55 PM79 °FScattered clouds.5 mph45%30.18 "Hg7 mi
12:35 PM81 °FScattered clouds.No wind42%30.19 "Hg7 mi
11:55 AM79 °FPartly sunny.5 mph45%30.19 "Hg10 mi
11:35 AM79 °FScattered clouds.3 mph42%30.19 "Hg10 mi
11:15 AM79 °FSunny.3 mph45%30.19 "Hg10 mi
Weather by CustomWeather, © 2016

See weather overviewHow to use our weather pages